Location: Davayat
(45.9471°N, 3.1105°E)
Time: 17:37:39
(UTC+00:00)

FengYun 1-2 T - Pass Details

Date: 01 December 2020
Orbit: 847 x 881 km, 98.7° (Epoch: 17 January)

Event Time Altitude Azimuth Distance (km) Brightness Sun altitude
Rises 16:49:05 0° 146° (SE) 3,423 7.3 -7.8°
Reaches altitude 10° 16:51:32 10° 140° (SE) 2,486 6.5 -8.2°
Maximum altitude 16:56:47 47° 68° (ENE) 1,120 4.5 -9.0°
Drops below altitude 10° 17:02:01 10° 356° (N) 2,486 6.5 -9.8°
Sets 17:04:28 0° 351° (N) 3,423 7.2 -10.2°
